Regional Weather Roundup
Issued by NWS

Home | Current Version | Previous Version | Graphics & Text | Print | Product List | Glossary On
Versions: 1 2 3 4 5 6 7 8 9 10 11 12 13 14 15 16 17 18 19 20 21 22 23 24 25 26 27 28 29 30 31 32 33 34 35 36 37 38 39 40 41 42 43 44 45 46 47 48 49 50
000
ASUS45 KCYS 300810
RWRWY

WYOMING REGIONAL WEATHER ROUNDUP
NATIONAL WEATHER SERVICE CHEYENNE WY
200 AM MDT SAT MAY 30 2015

NOTE:  "FAIR" INDICATES FEW OR NO CLOUDS BELOW 12,000 FEET
WITH NO SIGNIFICANT WEATHER AND/OR OBSTRUCTIONS TO VISIBILITY.

WYZ001-300900-
YELLOWSTONE NATIONAL PARK

CITY           SKY/WX    TMP DP  RH WIND       PRES   REMARKS
LK YELLOWSTONE   N/A     34  32  92 CALM      30.32S
W YELLOWSTONE  NOT AVBL

$$
WYZ002>013-054>058-071-098>099-300900-
NORTHERN WYOMING

CITY           SKY/WX    TMP DP  RH WIND       PRES   REMARKS
JACKSON        FAIR      43  43 100 N5        30.26S
CODY           FAIR      46  45  93 CALM      30.18S
GREYBULL       FAIR      54  47  77 E6        30.16S
WORLAND        FAIR      54  44  69 SE14      30.16F
SHERIDAN       FAIR      40  39  97 SW6       30.16F
BUFFALO        FAIR      43  42  97 SE3       30.19F
GILLETTE       FAIR      42  36  79 S8        30.22F
HULETT         FAIR      37  32  81 S5        30.26R WCI  34
NEWCASTLE      CLOUDY    43  43 100 SE6       30.29S FOG

$$
WYZ014>020-022>026-101>103-300900-
CENTRAL WYOMING

CITY           SKY/WX    TMP DP  RH WIND       PRES   REMARKS
BIG PINEY      FAIR      44  40  85 E3        30.31F
PINEDALE       FAIR      39  37  93 CALM      30.33S
DUBOIS         CLOUDY    45  39  81 W6        30.29F
LANDER         FAIR      47  41  80 W7        30.23R
RIVERTON       FAIR      46  43  89 NE3       30.24S
CASPER         FAIR      37  35  92 N3        30.25F
DOUGLAS        FAIR      41  39  93 SE5       30.26F

$$
WYZ021-027>030-104>119-300900-
SOUTHERN WYOMING

CITY           SKY/WX    TMP DP  RH WIND       PRES   REMARKS
EVANSTON       FAIR      48  39  71 S6        30.28S
KEMMERER       FAIR      43  37  81 N8        30.30S
FORT BRIDGER   SUNNY     46  39  76 W6        30.30S
ROCK SPRINGS   FAIR      47  40  76 SE8       30.28F
DIXON          FAIR      42  38  88 E8        30.33S
RAWLINS        FAIR      40  37  89 N3        30.31S
SARATOGA       FAIR      41  37  87 S8        30.32S
LARAMIE        FAIR      36  35  96 S8        30.31F WCI  30
CHEYENNE       FAIR      40  38  93 SW8       30.31F WCI  34
TORRINGTON     CLOUDY    47  45  93 SE7       30.27S
PINE BLUFFS    FAIR      39  39 100 S5        30.32R

$$



USA.gov is the U.S. government's official web portal to all federal, state and local government web resources and services.